SCP
0 0 0 0 0 0 0 0 0 -0 0 0 0 -0 -0 0 0 0 0 0 -0 0 0 0 0 0 0 0 0 0 0 0 0 0 0 0 0 0 0 0 0 0 0 0
0 0 0 0 0 0 0 0 0 0 0 0 0 0 0 -0 0 0 0 0 0 0 0 0 0 0 0 0 0 0 0 0 0 0 0 0 0 0 0 0 0 0 0 0
0 0 0 0 0 0 0 0 0 0 0 0 0 -0 -0 -0 -0 -0 0 0 0 0 0 0 0 0 0 0 0 0 0 0 0 0 0 0 0 0 0 0 0 0 0 0
0 0 0 0 0 0 0 0 0 0 0 0 0 0 -0 0 0 0 0 -0 -0 -0 0 0 0 0 0 0 0 0 0 0 0 0 0 0 0 0 0 0 0 0 0 0
0 0 0 0 0 0 0 0 0 0 0 0 0 0 0 0 0 0 0 0 0 -0 0 0 0 0 0 0 0 0 0 0 0 0 0 0 0 0 0 0 0 0 0 0
0 0 0 0 0 0 0 0 0 0 0 0 0 0 0 0 0 0 -0 0 0 0 0 0 0 0 0 0 0 0 0 0 0 0 0 0 0 0 0 0 0 0 0 0
0 -0 0 0 0 0 0 0 0 0 0 0 0 0 0 0 0 -0 -0 0 0 0 0 0 0 0 0 0 0 0 0 0 0 0 0 0 0 0 0 0 0 0 0 0
0 -0 0 0 0 0 0 0 0 0 0 0 0 0 0 0 0 0 0 0 0 0 0 0 0 0 0 0 0 0 0 0 0 0 0 0 0 0 0 0 0 0 0 0
0 0 0 0 0 0 0 0 0 0 0 0 0 0 0 -0 0 0 0 0 0 0 0 0 0 0 0 0 0 0 0 0 0 0 0 0 0 0 0 0 0 0 0 0
0 0 0 0 0 0 0 0 0 0 0 0 0 0 -0 -0 0 0 0 0 0 0 0 0 0 0 0 0 0 0 0 0 0 0 0 0 0 0 0 0 0 0 0 0
0 0 0 0 0 0 0 0 0 0 0 0 0 0 -0 0 0 0 0 -0 -0 0 0 0 0 0 0 0 0 0 0 0 0 0 0 0 0 0 0 0 0 0 0 0
0 0 0 0 0 0 0 0 0 0 0 0 0 0 -0 0 0 0 0 -0 0 0 0 0 0 0 0 0 0 0 0 0 0 0 0 0 0 0 0 0 0 0 0 0
0 0 0 0 0 0 0 0 0 0 0 0 0 0 0 0 0 -0 -0 -0 0 0 0 0 0 0 0 0 0 0 0 0 0 0 0 0 0 0 0 0 0 0 0 0
0 0 0 0 0 0 0 0 0 0 0 0 0 0 0 -0 -0 0 0 0 0 0 0 0 0 0 0 0 0 0 0 0 0 0 0 0 0 0 0 0 0 0 0 0
0 0 0 0 0 0 0 0 0 0 0 0 0 0 0 0 0 0 0 -0 -0 0 0 0 0 0 0 0 0 0 0 0 0 0 0 0 0 0 0 0 0 0 0 0
0 -0 0 0 0 0 0 0 0 0 0 0 0 0 0 0 0 0 0 0 0 0 0 0 0 0 0 0 0 0 0 0 0 0 -0 0 0 0 0 0 0 0 0 0
0 0 -0 -0 -0 0 0 0 0 0 0 0 0 0 0 0 0 0 0 0 0 0 0 0 0 0 0 0 0 0 0 0 0 0 0 0 0 0 0 0 0 0 0 0
0 0 0 -0 -0 -0 0 0 0 0 0 0 0 0 0 0 0 0 0 0 0 0 0 0 0 0 0 0 0 0 0 0 0 0 0 0 0 0 0 0 0 0 0 0
0 0 -0 -0 -0 -0 -0 0 0 0 0 0 0 0 0 0 0 0 0 0 0 0 0 0 0 0 0 0 0 0 0 0 0 0 0 0 0 0 0 0 0 0 0 0
-0 0 0 0 -0 -0 -0 0 0 0 0 0 0 0 0 0 0 0 0 0 0 0 0 0 0 0 0 0 0 0 0 0 0 0 0 0 0 0 0 -0 0 0 0 0
0 0 -0 -0 -0 0 -0 -0 -0 -0 0 0 0 0 0 0 0 0 0 0 0 0 0 0 0 0 0 0 0 0 -0 -0 0 0 0 0 0 0 0 0 0 0 0 0
0 0 -0 -0 -0 0 -0 -0 -0 -0 -0 -0 -0 -0 -0 0 0 0 0 0 0 0 0 0 -0 0 -0 -0 -0 -0 -0 -0 -0 -0 -0 -0 -0 0 0 0 0 0 0 0
0 -0 0 -0 0 0 0 -0 0 -0 0 -0 -0 -0 0 -0 -0 -0 0 0 0 0 0 0 -0 -0 0 -0 -0 -0 -0 0 -0 0 0 0 0 0 0 0 0 0 0 0
0 0 0 0 0 0 0 0 -0 0 0 -0 -0 -0 -0 -0 -0 -0 -0 -0 -0 -0 -0 -0 -0 0 -0 -0 -0 -0 -0 -0 -0 0 0 0 0 0 0 0 0 0 0 0
0 0 0 0 -0 0 -0 -0 -0 -0 -0 -0 -0 -0 -0 -0 -0 -0 -0 -0 -0 -0 -0 -0 -0 -0 -0 -0 0 0 0 0 -0 -0 0 0 0 0 0 0 0 0 0 0
0 0 0 0 -0 0 -0 -0 0 0 -0 -0 0 -0 -0 -0 0 -0 -0 -0 -0 -0 -0 -0 -0 -0 -0 -0 -0 0 0 -0 -0 -0 -0 -0 0 0 0 0 0 0 0 0
Wind_Speed_500mb
9 8 23 21 20 29 32 36 43 51 44 41 43 49 48 44 44 52 58 60 62 57 40 35 42 53 46 46 48 52 46 46 47 46 46 79 80 68 56 63 68 69 65 67
10 18 28 18 22 29 32 40 47 43 38 26 36 49 42 40 36 58 59 60 65 64 58 55 55 56 53 59 55 51 42 40 50 48 50 56 68 57 64 56 71 70 70 68
14 25 33 24 23 29 36 30 36 45 44 36 44 49 48 40 52 64 66 65 62 59 54 49 59 57 55 59 55 58 53 43 52 48 49 54 63 63 61 68 61 76 76 72
15 15 8 29 26 29 28 15 23 29 26 12 7 19 3 16 17 15 37 42 62 70 72 67 55 60 54 51 49 59 58 52 50 48 53 55 73 69 79 68 63 64 79 69
15 27 30 25 19 20 22 36 30 41 34 27 16 11 11 15 18 31 25 36 39 43 67 67 59 54 51 47 44 46 46 56 58 49 48 50 67 82 75 62 59 50 53 66
30 40 13 11 23 30 38 23 41 22 13 7 7 13 8 11 23 33 40 51 43 47 40 53 58 58 52 49 46 47 51 58 58 51 47 53 77 61 47 58 63 54 55 61
16 13 11 8 15 14 24 15 8 8 3 10 3 4 5 30 34 29 34 63 72 57 43 31 61 59 54 50 50 46 45 53 45 45 50 46 70 71 58 56 50 53 59 54
3 18 6 10 13 19 22 6 6 10 8 15 7 5 2 36 36 48 55 58 51 32 25 23 56 50 43 44 47 45 37 39 42 40 37 54 42 63 64 47 57 54 48 52
8 13 10 16 12 17 16 14 27 9 7 5 3 9 1 42 35 40 51 57 3 24 32 38 43 38 28 26 29 30 31 39 38 34 36 42 34 37 72 52 37 55 53 49
9 13 7 13 12 13 10 16 9 5 9 9 7 9 18 43 44 36 34 41 37 32 30 23 20 12 12 19 20 25 28 34 36 33 29 38 39 36 41 50 46 40 46 48
7 8 17 10 14 31 22 17 10 8 10 9 11 2 22 37 35 29 25 37 40 45 39 22 12 9 9 12 21 23 25 30 31 33 31 31 31 30 27 33 36 38 37 37
7 8 12 8 8 25 20 21 17 7 9 7 10 3 30 30 27 31 30 38 43 45 34 24 13 10 12 19 23 25 30 34 34 35 33 31 30 25 19 16 15 14 14 15
6 6 9 18 10 9 9 33 31 12 3 19 9 12 23 33 30 38 36 42 47 49 40 29 23 21 23 29 32 33 34 40 43 44 42 36 30 29 26 23 20 19 18 18
7 6 1 5 12 9 21 37 32 19 7 12 15 25 33 36 32 37 47 47 53 62 55 47 41 39 44 47 49 50 51 50 55 54 55 52 51 51 51 49 45 43 42 43
6 4 7 19 17 4 20 28 34 27 25 8 13 21 31 31 31 43 55 58 61 71 66 60 50 52 60 64 61 60 63 60 59 65 63 63 59 56 57 55 51 49 50 50
7 5 5 9 8 14 12 30 29 18 25 10 15 18 20 36 53 60 60 62 62 61 62 60 58 66 69 70 72 71 68 66 61 62 62 56 58 55 54 53 51 47 45 42
4 4 7 9 9 7 11 23 17 11 30 14 15 9 20 31 40 54 54 59 58 57 61 64 69 68 71 75 73 73 67 62 62 60 59 54 49 49 49 47 45 44 42 38
3 4 2 7 9 10 11 1 7 4 22 29 23 27 14 16 36 55 60 56 59 60 66 67 68 70 73 74 76 71 66 65 63 62 59 54 50 49 49 47 47 44 41 40
15 4 5 5 3 7 9 7 8 6 9 20 16 23 32 25 19 56 62 59 57 59 61 64 68 68 71 72 70 67 66 65 64 63 56 51 49 48 45 44 43 40 35 36
1 4 5 6 9 5 7 3 2 4 8 21 26 23 21 26 19 13 46 51 56 61 61 62 63 64 65 63 60 61 62 60 62 55 53 48 46 47 45 43 42 39 34 35
6 6 6 1 2 11 6 15 7 11 5 10 16 22 28 11 10 14 28 42 49 52 52 50 52 59 57 53 51 56 54 58 53 46 42 43 42 42 42 37 36 33 30 29
7 6 5 4 8 6 4 3 3 11 8 8 11 14 20 22 23 28 34 40 43 46 45 46 47 48 46 44 42 44 49 46 40 36 37 37 37 36 34 29 30 27 25 23
5 10 6 12 9 4 4 10 16 17 20 11 11 15 16 21 23 26 31 33 37 39 40 38 36 35 38 38 36 36 39 34 31 27 28 26 26 26 25 23 23 20 21 20
7 9 4 8 6 9 11 14 17 18 18 21 18 15 16 20 19 21 23 26 31 34 35 33 29 34 38 40 40 42 37 33 27 23 22 20 19 18 15 13 13 12 12 12
6 15 8 9 11 6 20 23 26 26 24 22 21 19 16 14 15 15 17 19 23 26 27 27 29 33 35 36 35 35 34 33 31 30 27 23 17 13 13 12 11 10 9 9
23 14 10 11 25 11 26 37 35 31 28 23 18 15 12 12 12 10 10 11 13 18 21 19 20 23 27 30 34 35 35 34 31 28 26 24 23 21 17 13 14 14 14 14
Wind_Direction_500mb
337 279 270 248 223 253 270 267 267 270 274 277 271 268 272 269 259 260 263 268 273 271 257 238 239 252 249 243 243 241 248 245 243 243 225 214 221 218 214 217 213 213 209 213
358 255 266 264 280 274 271 275 275 278 276 265 276 270 264 260 255 249 249 246 252 258 260 250 245 247 248 249 249 237 236 234 236 244 238 233 210 216 220 218 217 216 216 216
258 264 306 298 301 295 280 267 274 274 292 274 268 273 264 258 250 251 255 252 245 244 248 249 236 238 243 245 242 241 240 247 233 240 240 230 219 224 223 215 220 219 216 224
284 277 280 314 298 291 288 254 292 289 296 304 124 294 82 262 237 254 256 259 241 245 250 251 244 230 239 247 244 235 240 245 237 230 234 230 230 214 200 231 230 223 219 217
275 304 307 305 275 290 271 292 280 275 274 289 243 256 283 340 18 346 332 329 345 275 249 238 235 230 235 241 244 237 242 239 238 231 228 233 217 218 212 218 225 225 230 220
262 278 267 233 290 295 290 299 286 272 250 245 302 178 314 23 337 327 330 327 317 310 313 253 232 232 233 237 242 244 243 238 240 227 224 234 227 220 207 211 216 223 230 221
326 299 289 261 313 296 328 338 310 1 343 223 286 178 278 7 351 331 319 311 303 301 299 297 221 222 224 230 240 248 253 255 235 235 225 233 231 230 223 221 222 226 224 237
37 332 358 307 317 323 314 288 287 313 312 286 180 250 196 12 343 337 326 312 294 287 288 231 195 201 211 227 235 243 243 236 228 233 232 234 233 214 220 223 234 230 227 240
351 285 324 327 331 5 327 316 296 260 247 260 202 344 75 352 346 339 345 348 115 104 109 132 167 187 201 218 230 234 230 225 222 222 218 219 211 229 230 205 219 224 225 235
277 290 220 287 357 310 289 297 330 292 312 296 5 60 332 344 343 347 343 355 12 77 90 104 131 160 185 214 230 224 228 218 212 208 199 211 203 200 199 206 213 224 234 250
255 186 297 1 2 1 2 2 348 287 25 326 326 62 358 346 336 337 339 1 21 62 77 87 105 164 180 207 213 205 205 204 194 188 181 187 197 204 207 219 223 229 239 239
275 299 294 254 20 25 12 0 11 353 4 319 287 344 18 344 341 343 356 17 35 67 78 92 108 151 168 171 167 173 174 171 164 164 154 156 157 168 179 177 171 185 196 211
319 305 310 341 336 359 7 11 7 344 292 31 352 314 351 352 359 5 14 29 45 63 76 88 104 112 130 137 134 136 143 144 141 138 135 131 130 130 134 132 125 125 128 124
315 275 352 277 299 339 358 2 2 5 27 337 11 331 351 360 1 11 21 34 48 57 63 80 86 96 106 113 116 118 118 119 121 122 117 118 116 114 110 108 107 106 103 102
85 198 311 271 251 206 6 9 356 6 1 21 352 11 359 360 356 14 27 29 41 47 53 63 69 84 94 98 106 107 105 104 106 110 110 108 108 108 108 106 103 102 101 98
10 272 354 292 281 206 352 5 4 358 359 342 355 41 1 9 20 20 26 29 36 39 49 61 64 86 89 92 92 95 97 97 98 95 95 100 103 103 101 102 103 103 99 98
33 43 28 286 349 66 15 356 337 329 9 344 7 17 37 26 26 21 20 30 35 43 54 61 68 77 84 85 89 88 89 91 91 89 88 85 86 90 92 93 94 92 93 94
300 65 153 261 10 34 235 51 238 192 25 11 6 0 13 84 48 36 38 38 43 57 68 72 76 78 78 81 82 85 85 85 85 85 81 79 83 84 85 86 85 88 91 94
210 104 328 62 116 280 324 20 340 14 8 17 360 1 4 28 22 33 43 55 61 66 70 74 76 75 75 76 79 80 81 81 81 78 77 77 77 80 82 83 82 82 85 88
315 92 124 23 108 174 250 316 291 188 17 11 11 13 358 22 53 5 32 55 61 65 64 67 69 74 75 77 82 86 82 81 80 80 81 82 83 81 80 79 81 81 82 83
347 355 154 1 168 290 251 303 148 74 245 33 36 36 37 64 63 42 62 64 66 67 69 71 72 71 72 73 75 78 79 75 73 76 79 79 77 80 79 79 80 81 79 78
186 128 238 73 56 308 344 104 172 150 114 110 86 66 70 79 82 77 72 69 69 69 68 66 67 70 71 70 71 73 72 73 73 71 72 73 75 77 79 76 76 73 73 69
315 186 197 171 215 227 69 117 133 140 146 148 113 102 98 92 88 81 73 66 60 54 51 52 54 61 65 64 63 66 67 68 67 63 64 66 66 66 67 68 71 69 64 59
258 178 199 46 275 222 181 160 159 160 159 152 145 129 127 112 94 77 66 55 47 43 40 39 43 53 57 54 49 47 44 42 39 38 40 42 41 43 45 50 49 43 38 35
195 141 189 269 269 217 220 198 179 172 171 167 160 151 137 119 109 92 66 50 41 34 33 43 57 60 60 56 50 44 39 33 25 22 19 13 5 356 354 354 356 353 347 341
189 186 165 221 198 180 194 187 184 182 178 176 176 168 152 140 128 99 67 43 34 29 33 43 51 52 50 42 32 23 17 13 9 4 359 357 354 351 347 329 322 317 314 312
Wind_Speed_850mb
9 8 23 21 20 29 32 36 43 51 44 41 43 49 48 44 44 52 58 60 62 57 40 35 42 53 46 46 48 52 46 46 47 46 46 79 80 68 56 63 68 69 65 67
10 18 28 18 22 29 32 40 47 43 38 26 36 49 42 40 36 58 59 60 65 64 58 55 55 56 53 59 55 51 42 40 50 48 50 56 68 57 64 56 71 70 70 68
14 25 33 24 23 29 36 30 36 45 44 36 44 49 48 40 52 64 66 65 62 59 54 49 59 57 55 59 55 58 53 43 52 48 49 54 63 63 61 68 61 76 76 72
15 15 8 29 26 29 28 15 23 29 26 12 7 19 3 16 17 15 37 42 62 70 72 67 55 60 54 51 49 59 58 52 50 48 53 55 73 69 79 68 63 64 79 69
15 27 30 25 19 20 22 36 30 41 34 27 16 11 11 15 18 31 25 36 39 43 67 67 59 54 51 47 44 46 46 56 58 49 48 50 67 82 75 62 59 50 53 66
30 40 13 11 23 30 38 23 41 22 13 7 7 13 8 11 23 33 40 51 43 47 40 53 58 58 52 49 46 47 51 58 58 51 47 53 77 61 47 58 63 54 55 61
16 13 11 8 15 14 24 15 8 8 3 10 3 4 5 30 34 29 34 63 72 57 43 31 61 59 54 50 50 46 45 53 45 45 50 46 70 71 58 56 50 53 59 54
3 18 6 10 13 19 22 6 6 10 8 15 7 5 2 36 36 48 55 58 51 32 25 23 56 50 43 44 47 45 37 39 42 40 37 54 42 63 64 47 57 54 48 52
8 13 10 16 12 17 16 14 27 9 7 5 3 9 1 42 35 40 51 57 3 24 32 38 43 38 28 26 29 30 31 39 38 34 36 42 34 37 72 52 37 55 53 49
9 13 7 13 12 13 10 16 9 5 9 9 7 9 18 43 44 36 34 41 37 32 30 23 20 12 12 19 20 25 28 34 36 33 29 38 39 36 41 50 46 40 46 48
7 8 17 10 14 31 22 17 10 8 10 9 11 2 22 37 35 29 25 37 40 45 39 22 12 9 9 12 21 23 25 30 31 33 31 31 31 30 27 33 36 38 37 37
7 8 12 8 8 25 20 21 17 7 9 7 10 3 30 30 27 31 30 38 43 45 34 24 13 10 12 19 23 25 30 34 34 35 33 31 30 25 19 16 15 14 14 15
6 6 9 18 10 9 9 33 31 12 3 19 9 12 23 33 30 38 36 42 47 49 40 29 23 21 23 29 32 33 34 40 43 44 42 36 30 29 26 23 20 19 18 18
7 6 1 5 12 9 21 37 32 19 7 12 15 25 33 36 32 37 47 47 53 62 55 47 41 39 44 47 49 50 51 50 55 54 55 52 51 51 51 49 45 43 42 43
6 4 7 19 17 4 20 28 34 27 25 8 13 21 31 31 31 43 55 58 61 71 66 60 50 52 60 64 61 60 63 60 59 65 63 63 59 56 57 55 51 49 50 50
7 5 5 9 8 14 12 30 29 18 25 10 15 18 20 36 53 60 60 62 62 61 62 60 58 66 69 70 72 71 68 66 61 62 62 56 58 55 54 53 51 47 45 42
4 4 7 9 9 7 11 23 17 11 30 14 15 9 20 31 40 54 54 59 58 57 61 64 69 68 71 75 73 73 67 62 62 60 59 54 49 49 49 47 45 44 42 38
3 4 2 7 9 10 11 1 7 4 22 29 23 27 14 16 36 55 60 56 59 60 66 67 68 70 73 74 76 71 66 65 63 62 59 54 50 49 49 47 47 44 41 40
15 4 5 5 3 7 9 7 8 6 9 20 16 23 32 25 19 56 62 59 57 59 61 64 68 68 71 72 70 67 66 65 64 63 56 51 49 48 45 44 43 40 35 36
1 4 5 6 9 5 7 3 2 4 8 21 26 23 21 26 19 13 46 51 56 61 61 62 63 64 65 63 60 61 62 60 62 55 53 48 46 47 45 43 42 39 34 35
6 6 6 1 2 11 6 15 7 11 5 10 16 22 28 11 10 14 28 42 49 52 52 50 52 59 57 53 51 56 54 58 53 46 42 43 42 42 42 37 36 33 30 29
7 6 5 4 8 6 4 3 3 11 8 8 11 14 20 22 23 28 34 40 43 46 45 46 47 48 46 44 42 44 49 46 40 36 37 37 37 36 34 29 30 27 25 23
5 10 6 12 9 4 4 10 16 17 20 11 11 15 16 21 23 26 31 33 37 39 40 38 36 35 38 38 36 36 39 34 31 27 28 26 26 26 25 23 23 20 21 20
7 9 4 8 6 9 11 14 17 18 18 21 18 15 16 20 19 21 23 26 31 34 35 33 29 34 38 40 40 42 37 33 27 23 22 20 19 18 15 13 13 12 12 12
6 15 8 9 11 6 20 23 26 26 24 22 21 19 16 14 15 15 17 19 23 26 27 27 29 33 35 36 35 35 34 33 31 30 27 23 17 13 13 12 11 10 9 9
23 14 10 11 25 11 26 37 35 31 28 23 18 15 12 12 12 10 10 11 13 18 21 19 20 23 27 30 34 35 35 34 31 28 26 24 23 21 17 13 14 14 14 14
Wind_Direction_850mb
337 279 270 248 223 253 270 267 267 270 274 277 271 268 272 269 259 260 263 268 273 271 257 238 239 252 249 243 243 241 248 245 243 243 225 214 221 218 214 217 213 213 209 213
358 255 266 264 280 274 271 275 275 278 276 265 276 270 264 260 255 249 249 246 252 258 260 250 245 247 248 249 249 237 236 234 236 244 238 233 210 216 220 218 217 216 216 216
258 264 306 298 301 295 280 267 274 274 292 274 268 273 264 258 250 251 255 252 245 244 248 249 236 238 243 245 242 241 240 247 233 240 240 230 219 224 223 215 220 219 216 224
284 277 280 314 298 291 288 254 292 289 296 304 124 294 82 262 237 254 256 259 241 245 250 251 244 230 239 247 244 235 240 245 237 230 234 230 230 214 200 231 230 223 219 217
275 304 307 305 275 290 271 292 280 275 274 289 243 256 283 340 18 346 332 329 345 275 249 238 235 230 235 241 244 237 242 239 238 231 228 233 217 218 212 218 225 225 230 220
262 278 267 233 290 295 290 299 286 272 250 245 302 178 314 23 337 327 330 327 317 310 313 253 232 232 233 237 242 244 243 238 240 227 224 234 227 220 207 211 216 223 230 221
326 299 289 261 313 296 328 338 310 1 343 223 286 178 278 7 351 331 319 311 303 301 299 297 221 222 224 230 240 248 253 255 235 235 225 233 231 230 223 221 222 226 224 237
37 332 358 307 317 323 314 288 287 313 312 286 180 250 196 12 343 337 326 312 294 287 288 231 195 201 211 227 235 243 243 236 228 233 232 234 233 214 220 223 234 230 227 240
351 285 324 327 331 5 327 316 296 260 247 260 202 344 75 352 346 339 345 348 115 104 109 132 167 187 201 218 230 234 230 225 222 222 218 219 211 229 230 205 219 224 225 235
277 290 220 287 357 310 289 297 330 292 312 296 5 60 332 344 343 347 343 355 12 77 90 104 131 160 185 214 230 224 228 218 212 208 199 211 203 200 199 206 213 224 234 250
255 186 297 1 2 1 2 2 348 287 25 326 326 62 358 346 336 337 339 1 21 62 77 87 105 164 180 207 213 205 205 204 194 188 181 187 197 204 207 219 223 229 239 239
275 299 294 254 20 25 12 0 11 353 4 319 287 344 18 344 341 343 356 17 35 67 78 92 108 151 168 171 167 173 174 171 164 164 154 156 157 168 179 177 171 185 196 211
319 305 310 341 336 359 7 11 7 344 292 31 352 314 351 352 359 5 14 29 45 63 76 88 104 112 130 137 134 136 143 144 141 138 135 131 130 130 134 132 125 125 128 124
315 275 352 277 299 339 358 2 2 5 27 337 11 331 351 360 1 11 21 34 48 57 63 80 86 96 106 113 116 118 118 119 121 122 117 118 116 114 110 108 107 106 103 102
85 198 311 271 251 206 6 9 356 6 1 21 352 11 359 360 356 14 27 29 41 47 53 63 69 84 94 98 106 107 105 104 106 110 110 108 108 108 108 106 103 102 101 98
10 272 354 292 281 206 352 5 4 358 359 342 355 41 1 9 20 20 26 29 36 39 49 61 64 86 89 92 92 95 97 97 98 95 95 100 103 103 101 102 103 103 99 98
33 43 28 286 349 66 15 356 337 329 9 344 7 17 37 26 26 21 20 30 35 43 54 61 68 77 84 85 89 88 89 91 91 89 88 85 86 90 92 93 94 92 93 94
300 65 153 261 10 34 235 51 238 192 25 11 6 0 13 84 48 36 38 38 43 57 68 72 76 78 78 81 82 85 85 85 85 85 81 79 83 84 85 86 85 88 91 94
210 104 328 62 116 280 324 20 340 14 8 17 360 1 4 28 22 33 43 55 61 66 70 74 76 75 75 76 79 80 81 81 81 78 77 77 77 80 82 83 82 82 85 88
315 92 124 23 108 174 250 316 291 188 17 11 11 13 358 22 53 5 32 55 61 65 64 67 69 74 75 77 82 86 82 81 80 80 81 82 83 81 80 79 81 81 82 83
347 355 154 1 168 290 251 303 148 74 245 33 36 36 37 64 63 42 62 64 66 67 69 71 72 71 72 73 75 78 79 75 73 76 79 79 77 80 79 79 80 81 79 78
186 128 238 73 56 308 344 104 172 150 114 110 86 66 70 79 82 77 72 69 69 69 68 66 67 70 71 70 71 73 72 73 73 71 72 73 75 77 79 76 76 73 73 69
315 186 197 171 215 227 69 117 133 140 146 148 113 102 98 92 88 81 73 66 60 54 51 52 54 61 65 64 63 66 67 68 67 63 64 66 66 66 67 68 71 69 64 59
258 178 199 46 275 222 181 160 159 160 159 152 145 129 127 112 94 77 66 55 47 43 40 39 43 53 57 54 49 47 44 42 39 38 40 42 41 43 45 50 49 43 38 35
195 141 189 269 269 217 220 198 179 172 171 167 160 151 137 119 109 92 66 50 41 34 33 43 57 60 60 56 50 44 39 33 25 22 19 13 5 356 354 354 356 353 347 341
189 186 165 221 198 180 194 187 184 182 178 176 176 168 152 140 128 99 67 43 34 29 33 43 51 52 50 42 32 23 17 13 9 4 359 357 354 351 347 329 322 317 314 312